Location: Newark
(43.6486°N, 79.3853°W)
Time: 11:15:35
(UTC+00:00)

ISS - Pass Details

Date: 04 April 2020
Orbit: 417 x 419 km, 51.6° (Epoch: 03 June)

Event Time Altitude Azimuth Distance (km) Brightness Sun altitude
Rises 01:07:52 0° 300° (WNW) 2,366 1.9 -14.8°
Reaches altitude 10° 01:09:59 10° 297° (WNW) 1,499 0.5 -15.1°
Maximum altitude 01:13:18 61° 216° (SW) 479 -3.5 -15.7°
Enters shadow 01:14:33 33° 149° (SSE) 716 -3.0 -15.9°
